RH
49 50 44 46 46 46 46 44 46 48 50 56 57 55 54 53 55 47 50 58 60 61 62 62 62 62 61 62 62 62 62 61 61 61 60 58 58 58
53 49 50 50 51 50 52 45 42 43 50 54 58 55 54 47 54 50 52 58 61 64 63 60 60 58 59 60 61 61 60 60 62 61 60 58 57 59
51 49 52 54 52 52 55 51 49 47 54 65 58 56 58 54 52 52 51 48 49 64 62 58 56 58 60 58 60 58 59 63 62 60 59 58 56 60
52 53 56 50 60 56 54 56 53 54 53 62 60 60 59 57 54 52 49 40 50 56 58 56 56 59 58 59 57 59 63 64 62 59 57 56 56 56
52 52 55 55 60 59 57 56 58 52 57 55 65 63 61 57 54 50 48 47 41 53 51 51 57 59 57 57 58 63 66 64 62 59 58 58 59 59
56 55 56 54 59 64 60 60 60 63 63 63 65 65 57 60 57 55 48 45 44 44 44 47 55 58 57 58 61 66 65 65 62 61 60 59 59 59
62 60 62 64 66 59 56 64 65 68 63 60 62 61 59 58 56 58 51 48 44 54 44 40 43 43 44 53 55 63 66 64 63 62 63 62 61 62
63 61 64 70 64 67 71 72 67 65 66 62 65 58 64 58 56 57 56 49 46 41 52 45 46 45 44 45 60 66 64 63 64 65 65 65 63 62
62 69 64 62 70 68 70 70 67 66 63 60 60 60 60 60 62 61 61 64 56 48 55 53 46 46 43 43 62 64 62 63 65 66 67 66 66 64
65 63 69 76 75 75 69 67 64 62 61 53 57 60 59 61 62 61 63 64 52 50 53 69 49 52 50 49 58 60 62 65 66 68 68 68 68 66
69 72 72 73 78 75 72 73 68 65 60 62 61 61 61 60 64 53 64 73 66 52 51 64 56 58 54 50 44 59 64 65 68 69 70 70 69 68
71 72 76 71 73 72 68 67 64 56 52 54 51 55 58 59 64 63 65 81 78 75 55 76 68 70 76 51 53 49 51 61 67 70 72 70 70 66
73 74 69 73 71 71 70 61 60 53 56 52 52 56 56 59 60 63 66 73 86 81 58 75 83 77 79 72 56 54 52 56 57 60 68 69 71 71
76 76 71 71 75 74 65 63 62 58 52 54 57 63 67 69 70 71 70 69 70 74 63 68 91 86 90 86 72 60 62 62 62 65 66 67 71 71
78 73 73 78 81 76 66 62 60 53 56 65 69 73 74 74 74 74 70 66 68 66 61 63 76 85 91 92 90 81 80 71 65 66 69 70 70 68
78 76 83 86 81 80 77 61 54 57 65 71 76 75 76 78 77 78 83 80 85 74 64 65 70 77 88 82 86 89 80 88 74 71 70 72 67 60
91 93 89 86 84 78 70 66 69 68 74 76 80 82 81 82 83 81 86 89 91 86 84 78 70 70 78 85 93 80 77 78 75 77 76 80 72 62
89 91 92 90 84 75 70 71 71 76 79 80 82 83 86 88 89 87 88 90 92 86 84 79 85 88 80 68 60 76 78 80 79 76 76 84 81 67
90 94 91 90 80 74 78 78 81 81 86 87 87 89 88 89 92 90 89 88 87 83 85 79 89 94 93 89 69 59 84 85 83 83 78 84 89 78
92 92 93 87 85 85 84 85 86 88 88 87 88 88 91 94 93 92 90 90 87 85 88 84 87 93 97 96 94 81 73 82 83 88 86 80 75 69
93 92 86 86 85 85 84 85 88 91 90 92 92 94 91 89 87 91 88 84 84 88 92 82 84 76 86 91 90 77 70 66 68 82 85 88 86 76
87 85 82 81 84 86 88 90 93 91 92 92 93 94 89 87 88 86 86 92 90 89 92 87 82 87 90 90 89 87 76 68 67 67 66 71 92 95
83 84 86 86 87 88 91 94 93 93 92 93 94 94 93 93 91 89 91 93 92 92 88 89 83 85 88 88 86 87 84 78 75 76 73 64 65 64
Wind_Speed
6 6 4 3 3 4 4 5 5 5 5 4 3 2 2 3 5 5 5 10 12 12 13 12 13 14 18 19 19 19 20 20 21 22 22 23 25 26
6 8 6 4 4 3 5 4 2 3 5 2 2 3 2 2 5 5 6 7 12 12 13 11 12 17 18 18 18 18 20 20 20 21 23 24 25 27
9 9 8 9 6 5 4 4 4 3 6 3 2 3 2 3 4 5 5 5 6 11 11 11 15 16 17 17 18 19 19 19 20 22 23 24 25 24
12 11 11 7 7 6 4 5 5 4 4 8 4 2 3 3 4 5 5 6 6 9 10 14 15 15 15 17 18 18 17 18 20 21 22 23 24 26
12 12 12 12 9 6 6 6 6 6 5 6 5 2 2 3 3 4 5 8 4 6 12 14 14 14 16 16 18 17 17 20 20 21 22 23 25 26
11 11 12 11 11 10 7 8 7 8 8 7 6 4 2 3 3 6 5 7 4 4 11 10 11 12 13 18 19 18 20 20 21 22 22 24 24 25
11 10 10 12 15 11 8 8 9 8 6 6 5 3 2 2 4 4 4 6 4 4 9 7 6 7 9 14 13 19 21 21 21 23 24 24 24 25
13 11 12 16 15 17 16 12 9 8 8 4 4 4 4 2 2 3 4 4 4 4 9 10 6 8 8 9 20 21 22 22 24 25 24 24 25 25
14 13 12 10 14 13 17 17 14 13 8 6 7 5 4 2 1 3 4 3 3 5 7 7 8 11 9 11 20 20 22 25 25 25 25 25 26 26
13 14 14 14 12 14 14 12 11 9 9 6 6 7 5 4 3 1 3 4 4 3 3 5 7 10 11 10 16 18 25 25 25 26 26 27 26 26
11 12 14 14 21 21 13 12 13 10 11 12 11 10 9 7 5 1 4 5 4 3 2 5 6 11 11 8 8 22 24 25 26 27 28 27 27 28
12 13 19 15 21 19 11 11 11 9 8 7 6 7 7 5 6 4 3 3 3 3 1 6 8 9 7 5 11 10 12 21 26 28 28 28 28 13
11 11 9 20 19 17 12 8 10 10 10 7 6 5 4 4 4 3 2 2 3 4 3 5 6 7 6 11 10 10 10 12 12 14 21 24 26 23
13 11 12 21 18 16 10 16 15 11 6 6 5 4 3 3 4 4 4 4 5 9 9 7 5 8 8 10 9 11 11 11 11 11 12 19 22 23
10 17 24 22 21 14 17 15 10 6 6 6 4 4 2 2 4 4 4 4 6 7 7 8 7 9 7 8 10 12 16 11 10 11 11 12 12 12
23 17 17 15 14 12 10 7 5 5 5 5 4 3 2 2 3 4 3 6 4 4 4 6 9 9 10 9 10 13 10 9 12 11 12 13 12 11
16 11 9 8 8 7 6 6 5 5 5 4 4 3 2 2 2 3 3 3 4 7 9 8 10 11 10 14 11 10 11 11 10 12 13 13 13 12
11 10 8 8 8 7 7 6 4 6 4 4 3 2 1 2 3 4 3 4 6 7 8 10 10 9 9 8 10 9 8 11 12 12 12 12 13 13
10 8 8 7 6 6 6 5 4 4 4 4 3 1 1 2 4 4 5 6 7 7 7 8 8 8 11 12 9 7 11 11 12 12 10 10 13 14
8 9 8 7 6 6 5 5 5 4 3 3 2 1 2 2 4 5 5 6 7 7 8 7 7 8 9 11 12 14 18 11 10 12 13 11 12 22
8 8 7 7 6 6 5 5 4 4 3 2 1 1 2 3 5 5 6 10 11 8 8 10 9 20 9 7 8 10 11 19 16 12 13 13 11 11
7 7 7 6 6 6 5 5 4 3 3 2 1 1 2 3 4 6 7 7 8 8 8 8 10 8 8 9 11 14 12 11 19 22 17 11 9 10
7 7 6 6 5 5 5 4 3 3 2 1 1 2 3 4 5 6 6 6 6 7 8 10 9 8 8 8 13 10 15 15 11 13 14 20 21 23
Wind_Direction
148 140 134 147 158 159 157 166 147 156 178 175 164 139 119 68 54 28 17 12 3 357 359 3 357 352 346 347 343 342 340 340 338 333 329 329 326 322
149 149 138 135 132 139 151 151 155 133 133 155 155 140 86 96 39 19 7 3 1 355 356 6 2 348 347 347 347 344 343 341 336 333 329 327 325 330
156 154 145 143 138 131 124 122 124 109 116 121 104 126 94 40 28 20 4 353 355 354 5 1 353 349 351 351 346 345 343 340 334 330 330 330 330 329
155 149 144 139 128 124 115 108 107 84 117 130 120 119 90 24 1 19 7 349 358 353 353 351 349 353 353 349 344 344 340 333 334 332 331 332 332 328
157 153 152 143 134 125 120 109 94 87 83 118 119 114 107 20 346 12 9 348 357 352 346 343 346 347 350 345 346 343 336 334 332 330 329 328 328 326
147 147 150 142 139 136 125 113 105 94 94 104 104 115 77 51 3 358 3 348 353 353 337 334 339 334 337 347 346 338 328 328 327 326 325 325 324 323
132 138 135 132 133 139 135 129 118 113 116 110 109 117 87 54 21 352 340 343 332 344 329 324 331 342 338 335 328 324 326 324 326 327 328 326 324 322
141 134 131 126 130 124 119 118 123 131 127 122 127 124 116 72 24 7 2 7 3 360 337 317 325 327 330 326 324 323 325 329 329 329 328 326 323 323
141 137 129 130 130 126 118 111 104 98 98 127 139 123 123 101 23 15 25 0 316 315 325 308 322 321 332 320 320 321 328 331 330 329 327 326 325 322
139 140 134 139 136 124 121 112 102 95 98 101 109 110 108 117 86 51 347 317 283 270 294 286 315 311 322 315 316 319 329 330 330 328 328 328 324 321
133 133 135 136 140 137 129 126 120 115 109 107 105 101 87 79 74 37 32 9 356 357 341 298 307 319 315 319 322 324 326 329 331 330 327 323 322 324
128 132 139 141 147 144 138 138 134 139 135 128 113 79 66 53 54 51 39 10 344 304 239 312 327 355 318 289 321 326 321 326 328 324 317 318 322 315
136 139 140 148 147 144 142 141 134 139 133 119 102 91 76 46 26 12 340 291 293 265 278 335 310 318 307 312 315 319 322 317 314 308 307 312 315 318
143 131 141 143 138 137 140 128 133 132 126 111 103 88 72 37 358 343 312 285 263 262 293 295 272 305 300 307 311 317 315 312 312 310 308 312 312 316
134 134 137 134 130 129 126 128 129 123 117 111 110 94 51 15 335 329 328 308 294 271 264 283 280 292 294 284 295 310 314 319 310 318 312 312 315 313
133 131 124 117 116 121 116 122 113 115 116 115 101 80 35 21 8 358 335 349 328 316 267 312 312 314 313 294 296 297 300 309 314 315 318 312 310 312
121 114 116 119 123 128 127 114 116 114 109 100 89 82 49 8 358 341 328 324 328 328 334 332 333 321 303 293 295 291 306 312 313 316 320 315 310 313
125 126 130 136 142 151 143 136 130 118 110 103 101 97 45 9 345 343 308 315 327 333 333 332 326 325 326 312 287 308 307 314 314 316 318 317 310 315
128 136 139 141 145 142 139 147 142 131 126 116 126 159 349 7 1 341 340 338 335 330 327 329 331 335 325 326 313 303 316 314 314 316 320 315 307 304
129 132 130 136 138 137 145 140 136 141 136 137 146 39 26 355 341 340 339 325 331 327 323 332 334 326 309 314 311 302 309 304 317 313 316 310 292 294
121 122 133 138 139 147 141 138 142 142 150 152 110 6 345 336 342 329 324 330 334 334 322 325 323 309 303 297 299 310 312 319 317 315 310 313 313 313
118 126 133 139 145 143 140 141 138 139 156 153 106 299 307 329 331 320 322 328 332 326 307 308 313 311 311 315 312 311 313 317 321 321 324 307 309 312
126 131 133 134 135 139 140 146 150 159 171 170 242 285 291 303 303 305 318 327 319 310 315 312 316 316 312 316 315 313 317 323 322 326 320 324 322 320